Location: Unspecified
(47.6579°N, 23.5637°E)
Time: 03:48:31
(UTC+02:00)

Envisat - Pass Details

Date: 02 December 2021
Orbit: 764 x 766 km, 98.2° (Epoch: 17 January)

Event Time Altitude Azimuth Distance (km) Brightness Sun altitude
Rises 07:04:38 0° 1° (N) 3,245 6.0 -8.2°
Reaches altitude 10° 07:07:35 10° 344° (NNW) 2,314 5.1 -7.8°
Maximum altitude 07:11:00 19° 301° (WNW) 1,790 4.3 -7.2°
Drops below altitude 10° 07:14:25 10° 259° (W) 2,303 5.0 -6.7°
Sets 07:17:20 0° 241° (WSW) 3,224 5.9 -6.3°
